Location: Unspecified
(0.0000°N, 0.0000°E)
Time: 15:24:23
(UTC+00:00)

CZ-3C DEB - Pass Details

Date: 14 February 2026
Orbit: 521 x 35552 km, 20.3° (Epoch: 6 July)

Event Time Altitude Azimuth Distance (km) Brightness Sun altitude
Rises 00:58:55 0° 253° (WSW) 9,565 ? -72.9°
Reaches altitude 10° 01:04:00 10° 249° (WSW) 9,865 ? -72.0°
Maximum altitude 07:01:18 86° 327° (NNW) 12,225 ? 11.5°
Drops below altitude 10° 07:42:22 10° 63° (ENE) 6,573 ? 21.5°
Sets 07:45:06 0° 65° (ENE) 6,811 ? 22.1°
